Home   Weather   Hannover   Past weeks

Flag for Germany Past Weather in Hannover, Lower Saxony, Germany — Yesterday and Last 2 Weeks

Now
48 °F

Clear.


Feels Like: 44 °F
Forecast: 40 / 46 °F
Wind: 10 mph from Southwest

Location: Hannover

Current Time: Dec 8, 2016 at 1:21:19 am

Latest Report: Dec 8, 2016 at 12:50 am


Visibility: 10 mi

Pressure: 30.33 "Hg

Humidity: 62%

Dew Point: 36 °F

Location of HannoverLocation

Past Weather in Hannover — Graph

°F

Hannover Temperature Yesterday

Maximum temperature yesterday: 46 °F (at 8:50 pm)
Minimum temperature yesterday: 28 °F (at 1:20 am)
Average temperature yesterday: 36 °F

High & Low Weather Summary for the Past Weeks

 TemperatureHumidityPressure
High57 °F (Nov 23, 1:50 pm)100% (Nov 23, 8:20 am)30.60 "Hg (Nov 23, 8:20 am)
Low18 °F (Nov 29, 4:50 am)49% (Dec 5, 12:50 pm)29.98 "Hg (Nov 27, 12:50 am)
Average34 °F87%30.28 "Hg
* Reported Nov 23 12:20 am — Dec 8 12:20 am, Hannover, Weather by CustomWeather, © 2016

Note: Actual official high and low records may vary slightly from our data, if they occured in-between our weather recording intervals... More about our weather records

Advertising

Hannover Weather History for the Previous 24 Hours

Scroll right to see more
 ConditionsComfort  
Time TempWeatherWind HumidityBarometerVisibility
12:20 am
Thu, Dec 8
48 °FClear.8 mph66%30.33 "Hg10 mi
11:50 pm
Wed, Dec 7
46 °FClear.10 mph71%30.33 "Hg10 mi
11:20 pm46 °FClear.9 mph71%30.33 "Hg10 mi
10:50 pm46 °FClear.9 mph71%30.33 "Hg10 mi
10:20 pm46 °FClear.10 mph71%30.36 "Hg10 mi
9:50 pm46 °FClear.10 mph71%30.36 "Hg10 mi
9:20 pm46 °FClear.7 mph71%30.36 "Hg10 mi
8:50 pm46 °FPassing clouds.3 mph71%30.36 "HgN/A
8:20 pm45 °FClear.6 mph71%30.36 "Hg10 mi
7:50 pm45 °FClear.8 mph71%30.36 "Hg10 mi
7:20 pm45 °FClear.10 mph71%30.36 "Hg10 mi
6:50 pm43 °FClear.8 mph76%30.36 "Hg10 mi
6:20 pm43 °FClear.7 mph76%30.36 "Hg10 mi
5:50 pm43 °FClear.9 mph76%30.36 "Hg10 mi
5:20 pm41 °FLight rain. Clear.8 mph76%30.36 "HgN/A
4:50 pm41 °FClear.6 mph76%30.36 "Hg10 mi
4:20 pm41 °FClear.6 mph76%30.36 "Hg10 mi
3:20 pm41 °FSunny.8 mph76%30.36 "Hg10 mi
2:50 pm41 °FSunny.6 mph76%30.36 "Hg10 mi
2:20 pm41 °FSunny.8 mph76%30.36 "Hg10 mi
1:50 pm39 °FSunny.8 mph75%30.39 "Hg10 mi
1:20 pm39 °FSunny.7 mph75%30.39 "Hg10 mi
12:50 pm37 °FLight rain. Clear.8 mph81%30.39 "HgN/A
12:20 pm37 °FSunny.8 mph75%30.39 "Hg10 mi
11:50 am36 °FSunny.8 mph81%30.42 "Hg10 mi
11:20 am34 °FSunny.7 mph81%30.42 "Hg10 mi
10:50 am34 °FSunny.9 mph81%30.42 "Hg10 mi
10:20 am34 °FSunny.10 mph81%30.42 "Hg10 mi
9:50 am32 °FSunny.8 mph87%30.42 "Hg10 mi
9:20 am32 °FSunny.9 mph80%30.42 "Hg10 mi
8:50 am30 °FSunny.9 mph86%30.42 "Hg10 mi
8:20 am30 °FSunny.7 mph86%30.42 "Hg10 mi
7:50 am30 °FClear.6 mph86%30.42 "Hg10 mi
7:20 am30 °FClear.6 mph86%30.42 "Hg10 mi
6:50 am28 °FClear.6 mph93%30.45 "Hg10 mi
6:20 am28 °FClear.7 mph86%30.45 "Hg10 mi
5:50 am28 °FClear.7 mph86%30.45 "Hg10 mi
5:20 am28 °FClear.8 mph80%30.45 "Hg10 mi
4:50 am28 °FClear.7 mph80%30.45 "Hg10 mi
4:20 am28 °FClear.7 mph86%30.48 "Hg10 mi
3:50 am30 °FClear.8 mph80%30.48 "Hg10 mi
3:20 am28 °FClear.7 mph86%30.48 "Hg10 mi
2:50 am28 °FClear.8 mph80%30.48 "Hg10 mi
2:20 am28 °FClear.8 mph80%30.48 "Hg10 mi
1:50 am28 °FClear.9 mph80%30.48 "Hg10 mi
1:20 am28 °FClear.12 mph80%30.48 "Hg10 mi
Weather by CustomWeather, © 2016

See weather overviewHow to use our weather pages